Falfurrias, TX

12:30 PM CDT on September 26, 2016 (GMT -0500)
Falfurrias

Weather History for KBKS - November, 2011

Change the Weather History Date:

Thursday, November 3, 2011

  Actual Average (KNQI) Record (KNQI)
Temperature  
Mean Temperature 62 °F -  
Max Temperature 71 °F 77 °F 91 °F (2012)
Min Temperature 53 °F 57 °F 39 °F (1999)
Degree Days  
Heating Degree Days 3    
Growing Degree Days 12 (Base 50)    
Moisture  
Dew Point 39 °F    
Average Humidity 48    
Maximum Humidity 94    
Minimum Humidity 20    
Precipitation  
Precipitation 0.00 in - - ()
Sea Level Pressure  
Sea Level Pressure 30.26 in    
Wind  
Wind Speed 8 mph (North)    
Max Wind Speed 23 mph    
Max Gust Speed 36 mph    
Visibility 10 miles    
Events      
Averages and records for this station are not official NWS values.
T = Trace of Precipitation, MM = Missing Value Source: NWS Daily Summary

Daily Weather History Graph

Daily Weather History Graph

Search for Another Location

Airport or City:

Trip Planner

Search our weather history database for the weather conditions in past years. The results will help you decide how hot, cold, wet, or windy it might be!

Date:

Astronomy

Nov. 03, 2011 Rise Set
Actual Time 7:43 AM CDT 6:47 PM CDT
Civil Twilight 7:19 AM CDT 7:11 PM CDT
Nautical Twilight 6:52 AM CDT 7:39 PM CDT
Astronomical Twilight 6:24 AM CDT 8:06 PM CDT
Moon 2:40 PM CDT (11/3) 1:33 AM CDT (11/3)
Length of Visible Light 11h 52m
Length of Day
11h 03m
First Quarter, 60% of the Moon is Illuminated
Nov 3
First Quarter
Nov 10
Full
Nov 18
Last Quarter
Nov 25
New
Dec 2
First Quarter

Hourly Weather History & Observations

Time (CDT) Temp. Dew Point Humidity Pressure Visibility Wind Dir Wind Speed Gust Speed Precip Events Conditions
12:15 AM 71.6 °F 68.0 °F 88% 30.07 in 10.0 mi Calm Calm - N/A   Clear
12:55 AM 71.6 °F 68.0 °F 88% 30.08 in 10.0 mi Calm Calm - N/A   Clear
1:15 AM 71.6 °F 68.0 °F 88% 30.08 in 10.0 mi Calm Calm - N/A   Clear
1:35 AM 69.8 °F 66.2 °F 88% 30.09 in 10.0 mi North 3.5 mph - N/A   Clear
1:55 AM 69.8 °F 68.0 °F 94% 30.09 in 10.0 mi Calm Calm - N/A   Scattered Clouds
2:15 AM 69.8 °F 68.0 °F 94% 30.09 in 10.0 mi Calm Calm - N/A   Scattered Clouds
2:35 AM 69.8 °F 68.0 °F 94% 30.09 in 10.0 mi Calm Calm - N/A   Scattered Clouds
2:55 AM 69.8 °F 66.2 °F 88% 30.09 in 10.0 mi Calm Calm - N/A   Scattered Clouds
3:15 AM 64.4 °F 55.4 °F 73% 30.14 in 10.0 mi North 20.7 mph 28.8 mph N/A   Mostly Cloudy
3:35 AM 62.6 °F 51.8 °F 68% 30.15 in 10.0 mi North 23.0 mph 35.7 mph N/A   Overcast
3:55 AM 60.8 °F 50.0 °F 68% 30.18 in 10.0 mi North 18.4 mph 35.7 mph N/A   Overcast
4:15 AM 57.2 °F 48.2 °F 72% 30.20 in 10.0 mi North 19.6 mph 31.1 mph N/A   Overcast
4:35 AM 55.4 °F 48.2 °F 77% 30.21 in 10.0 mi North 17.3 mph 31.1 mph N/A   Overcast
4:55 AM 55.4 °F 46.4 °F 72% 30.21 in 10.0 mi North 16.1 mph 26.5 mph N/A   Overcast
5:15 AM 55.4 °F 46.4 °F 72% 30.22 in 10.0 mi North 12.7 mph 20.7 mph N/A   Overcast
5:35 AM 55.4 °F 46.4 °F 72% 30.23 in 10.0 mi North 12.7 mph 19.6 mph N/A   Overcast
5:55 AM 55.4 °F 46.4 °F 72% 30.24 in 10.0 mi NNW 9.2 mph 16.1 mph N/A   Overcast
6:15 AM 55.4 °F 42.8 °F 63% 30.24 in 10.0 mi North 18.4 mph 27.6 mph N/A   Overcast
6:35 AM 55.4 °F 41.0 °F 58% 30.26 in 10.0 mi North 13.8 mph 24.2 mph N/A   Overcast
6:55 AM 55.4 °F 41.0 °F 58% 30.27 in 10.0 mi North 15.0 mph 25.3 mph N/A   Overcast
7:15 AM 55.4 °F 37.4 °F 51% 30.29 in 10.0 mi NNW 18.4 mph 27.6 mph N/A   Overcast
7:35 AM 55.4 °F 39.2 °F 54% 30.29 in 10.0 mi North 15.0 mph 20.7 mph N/A   Overcast
7:55 AM 55.4 °F 39.2 °F 54% 30.31 in 10.0 mi North 12.7 mph 20.7 mph N/A   Overcast
8:15 AM 55.4 °F 35.6 °F 47% 30.32 in 10.0 mi North 11.5 mph 24.2 mph N/A   Overcast
8:35 AM 57.2 °F 33.8 °F 41% 30.34 in 10.0 mi North 15.0 mph 20.7 mph N/A   Overcast
8:55 AM 57.2 °F 33.8 °F 41% 30.35 in 10.0 mi NNW 10.4 mph 19.6 mph N/A   Overcast
9:15 AM 57.2 °F 33.8 °F 41% 30.35 in 10.0 mi North 11.5 mph 23.0 mph N/A   Overcast
9:35 AM 57.2 °F 33.8 °F 41% 30.37 in 10.0 mi North 16.1 mph 24.2 mph N/A   Overcast
9:55 AM 57.2 °F 32.0 °F 38% 30.37 in 10.0 mi NNW 17.3 mph 25.3 mph N/A   Overcast
10:15 AM 59.0 °F 32.0 °F 36% 30.38 in 10.0 mi North 12.7 mph 19.6 mph N/A   Overcast
10:35 AM 57.2 °F 32.0 °F 38% 30.39 in 10.0 mi North 12.7 mph 26.5 mph N/A   Overcast
10:55 AM 59.0 °F 32.0 °F 36% 30.39 in 10.0 mi North 17.3 mph 23.0 mph N/A   Overcast
11:15 AM 59.0 °F 32.0 °F 36% 30.39 in 10.0 mi NNW 17.3 mph 24.2 mph N/A   Overcast
11:35 AM 60.8 °F 32.0 °F 34% 30.39 in 10.0 mi NNW 18.4 mph 21.9 mph N/A   Overcast
11:55 AM 60.8 °F 32.0 °F 34% 30.38 in 10.0 mi North 11.5 mph 21.9 mph N/A   Overcast
12:15 PM 60.8 °F 32.0 °F 34% 30.38 in 10.0 mi NNW 15.0 mph 20.7 mph N/A   Overcast
12:35 PM 60.8 °F 32.0 °F 34% 30.37 in 10.0 mi NNW 15.0 mph 20.7 mph N/A   Overcast
12:55 PM 60.8 °F 32.0 °F 34% 30.36 in 10.0 mi North 16.1 mph 23.0 mph N/A   Overcast
1:15 PM 60.8 °F 32.0 °F 34% 30.35 in 10.0 mi North 11.5 mph 19.6 mph N/A   Overcast
1:35 PM 62.6 °F 30.2 °F 30% 30.34 in 10.0 mi North 13.8 mph 19.6 mph N/A   Overcast
1:55 PM 62.6 °F 28.4 °F 27% 30.32 in 10.0 mi North 16.1 mph 24.2 mph N/A   Overcast
2:15 PM 66.2 °F 28.4 °F 24% 30.31 in 10.0 mi North 10.4 mph 19.6 mph N/A   Overcast
2:35 PM 64.4 °F 30.2 °F 28% 30.30 in 10.0 mi NNW 6.9 mph - N/A   Mostly Cloudy
2:55 PM 68.0 °F 30.2 °F 24% 30.29 in 10.0 mi NNW 12.7 mph 17.3 mph N/A   Overcast
3:15 PM 66.2 °F 28.4 °F 24% 30.28 in 10.0 mi NNW 12.7 mph 21.9 mph N/A   Overcast
3:35 PM 68.0 °F 26.6 °F 21% 30.27 in 10.0 mi North 15.0 mph 23.0 mph N/A   Overcast
3:55 PM 68.0 °F 26.6 °F 21% 30.26 in 10.0 mi North 10.4 mph 21.9 mph N/A   Scattered Clouds
4:15 PM 69.8 °F 26.6 °F 20% 30.25 in 10.0 mi North 10.4 mph 18.4 mph N/A   Clear
4:55 PM 68.0 °F 24.8 °F 20% 30.25 in 10.0 mi North 12.7 mph 17.3 mph N/A   Clear
5:15 PM 69.8 °F 26.6 °F 20% 30.24 in 10.0 mi North 10.4 mph 18.4 mph N/A   Clear
5:35 PM 68.0 °F 26.6 °F 21% 30.24 in 10.0 mi North 8.1 mph - N/A   Clear
6:35 PM 66.2 °F 26.6 °F 23% 30.24 in 10.0 mi North 4.6 mph - N/A   Clear
6:55 PM 64.4 °F 26.6 °F 24% 30.24 in 10.0 mi Calm Calm - N/A   Clear
7:15 PM 62.6 °F 26.6 °F 26% 30.25 in 10.0 mi North 3.5 mph - N/A   Clear
7:35 PM 60.8 °F 26.6 °F 27% 30.26 in 10.0 mi Calm Calm - N/A   Scattered Clouds
7:55 PM 60.8 °F 28.4 °F 29% 30.26 in 10.0 mi Calm Calm - N/A   Clear
8:15 PM 57.2 °F 28.4 °F 33% 30.27 in 10.0 mi Calm Calm - N/A   Clear
8:35 PM 55.4 °F 30.2 °F 38% 30.27 in 10.0 mi Calm Calm - N/A   Clear
8:55 PM 53.6 °F 30.2 °F 41% 30.27 in 10.0 mi Calm Calm - N/A   Clear
9:15 PM 55.4 °F 30.2 °F 38% 30.27 in 10.0 mi Calm Calm - N/A   Clear
9:35 PM 53.6 °F 32.0 °F 44% 30.27 in 10.0 mi Calm Calm - N/A   Clear
10:15 PM 51.8 °F 32.0 °F 47% 30.28 in 10.0 mi Calm Calm - N/A   Clear
10:35 PM 51.8 °F 32.0 °F 47% 30.28 in 10.0 mi Calm Calm - N/A   Clear
10:55 PM 50.0 °F 32.0 °F 50% 30.27 in 10.0 mi Calm Calm - N/A   Clear
11:35 PM 50.0 °F 32.0 °F 50% 30.27 in 10.0 mi Calm Calm - N/A   Clear
11:55 PM 50.0 °F 32.0 °F 50% 30.27 in 10.0 mi Calm Calm - N/A   Clear